Location: Koslow
(50.3020°N, 18.5663°E)
Time: 23:25:00
(UTC+00:00)

STARLINK-1357 - Pass Details

Date: 23 June 2021
Orbit: 546 x 548 km, 53.1° (Epoch: 30 July)

Event Time Altitude Azimuth Distance (km) Brightness Sun altitude
Exits shadow 00:45:57 17° 220° (SW) 1,405 5.1 -11.8°
Maximum altitude 00:48:52 51° 149° (SSE) 691 3.9 -11.6°
Drops below altitude 10° 00:52:54 10° 73° (ENE) 1,826 7.0 -11.3°
Sets 00:55:10 0° 68° (ENE) 2,723 8.1 -11.1°
